• In Denmark
  • List of Countries
  • For 7 days
  • Water Temperature
  • Satellite Maps
  • Weather Map
  • Weather Widgets
  • user-avatar
    Login

    Hourly Weather Czaczow

    Today, 23 September, Sunday

    Time Temperature Precipitation Wind Pressure Humidity
    00:00 +10°C° 0 mm 2 mps 722 mmHg 73%
    01:00 +10°C° 0 mm 2 mps 722 mmHg 73%
    02:00 +9°C° 0 mm 2 mps 722 mmHg 76%
    03:00 +9°C° 0 mm 2 mps 722 mmHg 78%
    04:00 +8°C° 0 mm 2 mps 722 mmHg 80%
    05:00 +9°C° 0 mm 2 mps 722 mmHg 78%
    06:00 +9°C° 0 mm 2 mps 721 mmHg 76%
    07:00 +10°C° 0 mm 2 mps 721 mmHg 75%
    08:00 +11°C° 0 mm 3 mps 722 mmHg 67%
    09:00 +13°C° 0 mm 3 mps 722 mmHg 60%
    10:00 +16°C° 0 mm 3 mps 722 mmHg 52%
    11:00 +16°C° 0 mm 3 mps 721 mmHg 52%
    12:00 +17°C° 0 mm 3 mps 721 mmHg 52%
    13:00 +17°C° 0 mm 3 mps 721 mmHg 51%
    14:00 +16°C° 0 mm 3 mps 720 mmHg 57%
    15:00 +16°C° 0 mm 3 mps 719 mmHg 63%
    16:00 +15°C° 0 mm 2 mps 719 mmHg 69%
    17:00 +13°C° 0.1 mm 3 mps 718 mmHg 71%
    18:00 +13°C° 0.1 mm 3 mps 717 mmHg 74%
    19:00 +12°C° 0.1 mm 3 mps 716 mmHg 77%
    20:00 +13°C° 0 mm 4 mps 715 mmHg 74%
    21:00 +13°C° 0 mm 5 mps 714 mmHg 72%
    22:00 +14°C° 0 mm 6 mps 713 mmHg 69%
    23:00 +14°C° 1.3 mm 6 mps 712 mmHg 75%

    Tomorrow, 24 September, Monday

    Time Temperature Precipitation Wind Pressure Humidity
    00:00 +14°C° 1.3 mm 6 mps 712 mmHg 80%
    01:00 +14°C° 1.3 mm 5 mps 711 mmHg 86%
    02:00 +13°C° 2.9 mm 6 mps 712 mmHg 88%
    03:00 +13°C° 2.9 mm 6 mps 712 mmHg 90%
    04:00 +11°C° 2.9 mm 6 mps 712 mmHg 92%
    05:00 +10°C° 0.7 mm 6 mps 714 mmHg 90%
    06:00 +8°C° 0.7 mm 6 mps 715 mmHg 89%
    07:00 +7°C° 0.7 mm 6 mps 716 mmHg 88%
    08:00 +7°C° 0.2 mm 6 mps 717 mmHg 85%
    09:00 +8°C° 0.2 mm 7 mps 719 mmHg 82%
    10:00 +8°C° 0.2 mm 7 mps 720 mmHg 79%
    11:00 +9°C° 0.1 mm 7 mps 720 mmHg 72%
    12:00 +9°C° 0.1 mm 7 mps 721 mmHg 65%
    13:00 +10°C° 0.1 mm 8 mps 721 mmHg 59%
    14:00 +9°C° 0.1 mm 7 mps 722 mmHg 60%
    15:00 +8°C° 0.1 mm 7 mps 722 mmHg 60%
    16:00 +8°C° 0.1 mm 6 mps 722 mmHg 61%
    17:00 +7°C° 0.1 mm 6 mps 723 mmHg 65%
    18:00 +6°C° 0.1 mm 5 mps 723 mmHg 69%
    19:00 +5°C° 0.1 mm 4 mps 723 mmHg 72%
    20:00 +4°C° 0 mm 4 mps 723 mmHg 72%
    21:00 +4°C° 0 mm 4 mps 724 mmHg 72%
    22:00 +3°C° 0 mm 5 mps 724 mmHg 71%
    23:00 +3°C° 0.5 mm 5 mps 724 mmHg 76%

    Day after tomorrow, 25 September, Tuesday

    Time Temperature Precipitation Wind Pressure Humidity
    00:00 +3°C° 0.5 mm 5 mps 724 mmHg 80%
    01:00 +3°C° 0.5 mm 5 mps 725 mmHg 85%
    02:00 +2°C° 0.2 mm 5 mps 725 mmHg 86%
    03:00 +2°C° 0.2 mm 5 mps 726 mmHg 87%
    04:00 +3°C° 0.2 mm 4 mps 726 mmHg 88%
    05:00 +3°C° 0 mm 4 mps 727 mmHg 87%
    06:00 +3°C° 0 mm 4 mps 728 mmHg 85%
    07:00 +4°C° 0 mm 4 mps 728 mmHg 84%
    08:00 +5°C° 0.1 mm 5 mps 729 mmHg 77%
    09:00 +6°C° 0.1 mm 5 mps 730 mmHg 70%
    10:00 +7°C° 0.1 mm 6 mps 730 mmHg 62%
    11:00 +8°C° 0.2 mm 6 mps 730 mmHg 61%
    12:00 +8°C° 0.2 mm 6 mps 730 mmHg 59%
    13:00 +8°C° 0.2 mm 6 mps 731 mmHg 58%
    14:00 +8°C° 0.2 mm 5 mps 731 mmHg 59%
    15:00 +7°C° 0.2 mm 5 mps 731 mmHg 60%
    16:00 +7°C° 0.2 mm 4 mps 731 mmHg 61%
    17:00 +7°C° 0 mm 3 mps 731 mmHg 67%
    18:00 +4°C° 0 mm 3 mps 732 mmHg 73%
    19:00 +4°C° 0 mm 2 mps 732 mmHg 79%
    20:00 +3°C° 0 mm 2 mps 733 mmHg 80%
    21:00 +3°C° 0 mm 2 mps 733 mmHg 81%
    22:00 +3°C° 0 mm 2 mps 733 mmHg 82%
    23:00 +2°C° 0 mm 2 mps 733 mmHg 83%

    26 September, Wednesday

    Time Temperature Precipitation Wind Pressure Humidity
    00:00 +3°C° 0 mm 1 mps 734 mmHg 83%
    01:00 +3°C° 0 mm 1 mps 734 mmHg 83%
    02:00 +2°C° 0 mm 1 mps 734 mmHg 83%
    03:00 +2°C° 0 mm 1 mps 734 mmHg 84%
    04:00 +2°C° 0 mm 1 mps 734 mmHg 84%
    05:00 +3°C° 0 mm 1 mps 734 mmHg 80%
    06:00 +4°C° 0 mm 1 mps 734 mmHg 76%
    07:00 +4°C° 0 mm 1 mps 734 mmHg 72%
    08:00 +7°C° 0 mm 1 mps 735 mmHg 62%
    09:00 +9°C° 0 mm 1 mps 735 mmHg 51%
    10:00 +12°C° 0 mm 1 mps 735 mmHg 41%
    11:00 +13°C° 0 mm 1 mps 734 mmHg 39%
    12:00 +13°C° 0 mm 1 mps 734 mmHg 36%
    13:00 +14°C° 0 mm 2 mps 733 mmHg 34%
    14:00 +14°C° 0 mm 1 mps 733 mmHg 39%
    15:00 +13°C° 0 mm 1 mps 732 mmHg 44%
    16:00 +13°C° 0 mm 1 mps 732 mmHg 48%
    17:00 +12°C° 0 mm 1 mps 732 mmHg 52%
    18:00 +10°C° 0 mm 1 mps 731 mmHg 56%
    19:00 +8°C° 0 mm 2 mps 731 mmHg 60%
    20:00 +8°C° 0 mm 2 mps 731 mmHg 62%
    21:00 +8°C° 0 mm 2 mps 731 mmHg 64%
    22:00 +7°C° 0 mm 2 mps 731 mmHg 65%
    23:00 +7°C° 0 mm 2 mps 731 mmHg 65%

    27 September, Thursday

    Time Temperature Precipitation Wind Pressure Humidity
    00:00 +7°C° 0 mm 2 mps 730 mmHg 65%
    01:00 +7°C° 0 mm 2 mps 730 mmHg 65%
    02:00 +8°C° 0 mm 2 mps 730 mmHg 63%
    03:00 +8°C° 0 mm 2 mps 729 mmHg 61%
    04:00 +8°C° 0 mm 2 mps 729 mmHg 59%
    05:00 +8°C° 0 mm 2 mps 729 mmHg 58%
    06:00 +8°C° 0 mm 2 mps 729 mmHg 57%
    07:00 +9°C° 0 mm 2 mps 729 mmHg 57%
    08:00 +12°C° 0 mm 2 mps 729 mmHg 51%
    09:00 +14°C° 0 mm 2 mps 729 mmHg 44%
    10:00 +16°C° 0 mm 2 mps 729 mmHg 38%
    11:00 +17°C° 0 mm 3 mps 729 mmHg 37%
    12:00 +18°C° 0 mm 3 mps 729 mmHg 35%
    13:00 +19°C° 0 mm 3 mps 728 mmHg 34%
    14:00 +19°C° 0 mm 3 mps 728 mmHg 39%
    15:00 +18°C° 0 mm 2 mps 728 mmHg 44%
    16:00 +18°C° 0 mm 2 mps 727 mmHg 49%
    17:00 +16°C° 0 mm 2 mps 727 mmHg 54%
    18:00 +14°C° 0 mm 1 mps 727 mmHg 58%
    19:00 +11°C° 0 mm 1 mps 727 mmHg 63%
    20:00 +11°C° 0 mm 1 mps 727 mmHg 63%
    21:00 +11°C° 0 mm 1 mps 727 mmHg 64%
    22:00 +10°C° 0 mm 1 mps 727 mmHg 65%
    23:00 +10°C° 0 mm 1 mps 727 mmHg 66%

    28 September, Friday

    Time Temperature Precipitation Wind Pressure Humidity
    00:00 +10°C° 0 mm 1 mps 726 mmHg 66%
    01:00 +10°C° 0 mm 1 mps 726 mmHg 67%
    02:00 +10°C° 0 mm 1 mps 726 mmHg 68%
    03:00 +9°C° 0 mm 1 mps 725 mmHg 69%
    04:00 +8°C° 0 mm 2 mps 725 mmHg 70%
    05:00 +9°C° 0 mm 2 mps 725 mmHg 68%
    06:00 +9°C° 0 mm 2 mps 725 mmHg 67%
    07:00 +10°C° 0 mm 2 mps 725 mmHg 66%
    08:00 +13°C° 0 mm 2 mps 725 mmHg 59%
    09:00 +16°C° 0 mm 2 mps 725 mmHg 52%
    10:00 +18°C° 0 mm 2 mps 725 mmHg 46%
    11:00 +19°C° 0 mm 2 mps 724 mmHg 43%
    12:00 +20°C° 0 mm 2 mps 724 mmHg 41%
    13:00 +21°C° 0 mm 2 mps 724 mmHg 39%
    14:00 +20°C° 0 mm 2 mps 723 mmHg 42%
    15:00 +20°C° 0 mm 2 mps 722 mmHg 46%
    16:00 +19°C° 0 mm 2 mps 722 mmHg 50%
    17:00 +17°C° 0 mm 2 mps 722 mmHg 55%
    18:00 +14°C° 0 mm 2 mps 721 mmHg 60%
    19:00 +12°C° 0 mm 2 mps 721 mmHg 65%
    20:00 +12°C° 0 mm 2 mps 721 mmHg 67%
    21:00 +10°C° 0 mm 2 mps 721 mmHg 68%
    22:00 +11°C° 0 mm 1 mps 721 mmHg 70%
    23:00 +10°C° 0 mm 1 mps 721 mmHg 71%
    Show more